Tracking 28794 objects as of 19-Apr-2024
HD Live streaming from Space Station
objects crossing your sky now

CZ-3B R/B

Track CZ-3B R/B now!
10-day predictions


NORAD ID: 39158
Int'l Code: 2013-020B
Perigee: 199.8 km
Apogee: 24,709.9 km
Inclination: 26.4 °
Period: 428.4 minutes
Semi major axis: 18825 km
RCS: 39.8107 m2 (large)
Launch date: May 1, 2013
Source: People's Republic of China (PRC)
Launch site: Xichang Space Center, China (XSC)

Note: This is a ROCKET BODY
Your satellite tracking list
Your tracking list is empty




NASA's NSSDC Master Catalog

Two Line Element Set (TLE):
1 39158U 13020B   24110.52673344  .00048580  40707-7  17622-2 0  9994
2 39158  26.3713 251.6878 6509690  50.8810 350.8915  3.36102058 97582
Source of the keplerian elements: AFSPC